Location: Chittendens Corners
(41.2320°N, 81.4940°W)
Time: 17:05:51
(UTC+00:00)

Cosmos 1553 Rocket - Pass Details

Date: 29 October 2020
Orbit: 940 x 1009 km, 82.9° (Epoch: 27 November)

Event Time Altitude Azimuth Distance (km) Brightness Sun altitude
Rises 22:53:30 0° 165° (SSE) 3,712 7.0 -6.1°
Reaches altitude 10° 22:56:09 10° 159° (SSE) 2,760 6.3 -6.6°
Maximum altitude 23:02:05 44° 90° (E) 1,342 4.3 -7.7°
Drops below altitude 10° 23:07:58 10° 20° (NNE) 2,736 6.1 -8.8°
Sets 23:10:34 0° 15° (NNE) 3,678 6.8 -9.2°
